{"data":{"norad_id":55319,"epoch":"2026-09-20T22:00:03.000096Z","epoch_age_seconds":60653,"freshness":"FRESH","line1":"1 55319U 23010BC  26263.91670139  .00052067  00000+0  34731-2 0  9993","line2":"2 55319  69.9989 232.0832 0004959 250.2221 296.2061 15.06759666  5716","mean_motion":15.06759666,"eccentricity":0.0004959,"inclination_deg":69.9989,"raan_deg":232.0832,"arg_perigee_deg":250.2221,"mean_anomaly_deg":296.2061,"bstar":0.0034731,"rev_number":571,"period_min":95.569322201382,"perigee_km":542.6757189118,"apogee_km":549.54318654362,"semimajor_km":6924.2464527277,"source":"CELESTRAK","updated_at":"2026-09-21T09:00:33.177150Z"}}